• In Hungary
  • List of Countries
  • For 7 days
  • Water Temperature
  • Satellite Maps
  • Weather Map
  • News
  • Weather Widgets
  • user-avatar
    Login

    Hourly Weather San José Costa Rica

    Today, 16 December, Saturday

    Time Temperature Precipitation Wind Pressure Humidity
    00:00 +21°C° 0 mm 1 mps 696 mmHg 78%
    01:00 +21°C° 0 mm 1 mps 695 mmHg 80%
    02:00 +21°C° 0 mm 1 mps 695 mmHg 81%
    03:00 +19°C° 0 mm 2 mps 695 mmHg 83%
    04:00 +19°C° 0 mm 2 mps 695 mmHg 83%
    05:00 +19°C° 0 mm 2 mps 695 mmHg 83%
    06:00 +19°C° 0 mm 2 mps 695 mmHg 84%
    07:00 +21°C° 0 mm 2 mps 696 mmHg 74%
    08:00 +25°C° 0 mm 2 mps 697 mmHg 64%
    09:00 +27°C° 0 mm 2 mps 697 mmHg 54%
    10:00 +29°C° 0 mm 2 mps 697 mmHg 48%
    11:00 +30°C° 0 mm 2 mps 697 mmHg 43%
    12:00 +32°C° 0 mm 2 mps 697 mmHg 37%
    13:00 +31°C° 0 mm 2 mps 696 mmHg 40%
    14:00 +30°C° 0 mm 2 mps 695 mmHg 43%
    15:00 +30°C° 0 mm 2 mps 695 mmHg 46%
    16:00 +28°C° 0 mm 1 mps 694 mmHg 51%
    17:00 +27°C° 0 mm 1 mps 694 mmHg 57%
    18:00 +25°C° 0 mm 1 mps 694 mmHg 62%
    19:00 +25°C° 0 mm 1 mps 695 mmHg 64%
    20:00 +24°C° 0 mm 1 mps 695 mmHg 66%
    21:00 +24°C° 0 mm 1 mps 696 mmHg 68%
    22:00 +23°C° 0 mm 1 mps 696 mmHg 70%
    23:00 +23°C° 0 mm 1 mps 696 mmHg 72%

    Tomorrow, 17 December, Sunday

    Time Temperature Precipitation Wind Pressure Humidity
    00:00 +22°C° 0 mm 1 mps 696 mmHg 74%
    01:00 +21°C° 0 mm 2 mps 696 mmHg 76%
    02:00 +20°C° 0 mm 2 mps 695 mmHg 78%
    03:00 +20°C° 0 mm 2 mps 695 mmHg 80%
    04:00 +19°C° 0 mm 2 mps 695 mmHg 81%
    05:00 +19°C° 0 mm 2 mps 695 mmHg 82%
    06:00 +19°C° 0 mm 2 mps 695 mmHg 83%
    07:00 +21°C° 0 mm 2 mps 696 mmHg 73%
    08:00 +24°C° 0 mm 2 mps 697 mmHg 62%
    09:00 +27°C° 0 mm 2 mps 698 mmHg 51%
    10:00 +29°C° 0 mm 2 mps 698 mmHg 45%
    11:00 +31°C° 0 mm 2 mps 697 mmHg 38%
    12:00 +34°C° 0 mm 2 mps 697 mmHg 32%
    13:00 +32°C° 0 mm 2 mps 696 mmHg 34%
    14:00 +32°C° 0 mm 2 mps 695 mmHg 37%
    15:00 +32°C° 0 mm 2 mps 695 mmHg 39%
    16:00 +30°C° 0 mm 2 mps 695 mmHg 45%
    17:00 +28°C° 0 mm 2 mps 695 mmHg 51%
    18:00 +26°C° 0 mm 2 mps 694 mmHg 57%
    19:00 +25°C° 0 mm 2 mps 695 mmHg 60%
    20:00 +24°C° 0 mm 2 mps 696 mmHg 63%
    21:00 +23°C° 0 mm 1 mps 696 mmHg 67%
    22:00 +23°C° 0 mm 1 mps 696 mmHg 69%
    23:00 +21°C° 0 mm 2 mps 696 mmHg 71%

    Day after tomorrow, 18 December, Monday

    Time Temperature Precipitation Wind Pressure Humidity
    00:00 +21°C° 0 mm 2 mps 696 mmHg 72%
    01:00 +21°C° 0 mm 2 mps 695 mmHg 74%
    02:00 +20°C° 0 mm 2 mps 695 mmHg 76%
    03:00 +20°C° 0 mm 2 mps 694 mmHg 78%
    04:00 +20°C° 0 mm 2 mps 695 mmHg 79%
    05:00 +20°C° 0 mm 2 mps 695 mmHg 79%
    06:00 +19°C° 0 mm 2 mps 695 mmHg 80%
    07:00 +23°C° 0 mm 2 mps 696 mmHg 71%
    08:00 +25°C° 0 mm 2 mps 697 mmHg 61%
    09:00 +28°C° 0 mm 2 mps 698 mmHg 52%
    10:00 +29°C° 0 mm 2 mps 698 mmHg 48%
    11:00 +31°C° 0 mm 2 mps 697 mmHg 43%
    12:00 +32°C° 0 mm 2 mps 697 mmHg 38%
    13:00 +32°C° 0 mm 2 mps 696 mmHg 38%
    14:00 +33°C° 0 mm 3 mps 696 mmHg 37%
    15:00 +33°C° 0 mm 3 mps 695 mmHg 36%
    16:00 +30°C° 0 mm 2 mps 695 mmHg 45%
    17:00 +27°C° 0 mm 1 mps 695 mmHg 53%
    18:00 +25°C° 0 mm 1 mps 695 mmHg 61%
    19:00 +25°C° 0 mm 1 mps 695 mmHg 63%
    20:00 +24°C° 0 mm 1 mps 696 mmHg 65%
    21:00 +24°C° 0 mm 1 mps 697 mmHg 67%
    22:00 +24°C° 0 mm 1 mps 697 mmHg 69%
    23:00 +23°C° 0 mm 1 mps 696 mmHg 70%

    19 December, Tuesday

    Time Temperature Precipitation Wind Pressure Humidity
    00:00 +23°C° 0 mm 1 mps 696 mmHg 72%
    01:00 +22°C° 0 mm 1 mps 696 mmHg 74%
    02:00 +22°C° 0 mm 1 mps 695 mmHg 77%
    03:00 +20°C° 0 mm 2 mps 695 mmHg 79%
    04:00 +20°C° 0 mm 2 mps 695 mmHg 80%
    05:00 +20°C° 0 mm 2 mps 695 mmHg 82%
    06:00 +19°C° 0 mm 2 mps 695 mmHg 83%
    07:00 +23°C° 0 mm 2 mps 696 mmHg 73%
    08:00 +25°C° 0 mm 2 mps 697 mmHg 63%
    09:00 +27°C° 0 mm 2 mps 698 mmHg 54%
    10:00 +29°C° 0 mm 2 mps 698 mmHg 48%
    11:00 +31°C° 0 mm 2 mps 697 mmHg 42%
    12:00 +34°C° 0 mm 2 mps 697 mmHg 36%
    13:00 +32°C° 0 mm 2 mps 696 mmHg 38%
    14:00 +31°C° 0 mm 2 mps 695 mmHg 40%
    15:00 +31°C° 0 mm 2 mps 695 mmHg 42%
    16:00 +29°C° 0 mm 2 mps 695 mmHg 49%
    17:00 +27°C° 0 mm 1 mps 695 mmHg 56%
    18:00 +25°C° 0 mm 1 mps 695 mmHg 63%
    19:00 +24°C° 0 mm 1 mps 695 mmHg 66%
    20:00 +24°C° 0 mm 1 mps 696 mmHg 69%
    21:00 +23°C° 0 mm 1 mps 697 mmHg 72%
    22:00 +23°C° 0 mm 1 mps 696 mmHg 73%
    23:00 +22°C° 0 mm 1 mps 696 mmHg 75%

    20 December, Wednesday

    Time Temperature Precipitation Wind Pressure Humidity
    00:00 +22°C° 0 mm 1 mps 696 mmHg 77%
    01:00 +22°C° 0 mm 1 mps 696 mmHg 78%
    02:00 +20°C° 0 mm 2 mps 695 mmHg 80%
    03:00 +20°C° 0 mm 2 mps 695 mmHg 81%
    04:00 +20°C° 0 mm 2 mps 695 mmHg 82%
    05:00 +20°C° 0 mm 2 mps 695 mmHg 82%
    06:00 +20°C° 0 mm 2 mps 696 mmHg 82%
    07:00 +23°C° 0 mm 2 mps 696 mmHg 73%
    08:00 +25°C° 0 mm 2 mps 697 mmHg 63%
    09:00 +28°C° 0 mm 2 mps 698 mmHg 53%
    10:00 +30°C° 0 mm 2 mps 698 mmHg 48%
    11:00 +31°C° 0 mm 2 mps 697 mmHg 42%
    12:00 +34°C° 0 mm 2 mps 697 mmHg 36%
    13:00 +34°C° 0 mm 2 mps 696 mmHg 38%
    14:00 +32°C° 0 mm 2 mps 695 mmHg 39%
    15:00 +32°C° 0 mm 2 mps 695 mmHg 40%
    16:00 +30°C° 0 mm 2 mps 695 mmHg 48%
    17:00 +27°C° 0 mm 2 mps 694 mmHg 55%
    18:00 +25°C° 0 mm 1 mps 694 mmHg 63%
    19:00 +25°C° 0 mm 1 mps 695 mmHg 66%
    20:00 +24°C° 0 mm 1 mps 695 mmHg 68%
    21:00 +23°C° 0 mm 2 mps 695 mmHg 71%
    22:00 +23°C° 0 mm 2 mps 695 mmHg 72%
    23:00 +21°C° 0 mm 2 mps 695 mmHg 73%

    21 December, Thursday

    Time Temperature Precipitation Wind Pressure Humidity
    00:00 +21°C° 0 mm 2 mps 695 mmHg 74%
    01:00 +21°C° 0 mm 2 mps 694 mmHg 75%
    02:00 +21°C° 0 mm 2 mps 694 mmHg 77%
    03:00 +20°C° 0 mm 2 mps 694 mmHg 78%
    04:00 +20°C° 0 mm 2 mps 694 mmHg 78%
    05:00 +20°C° 0 mm 2 mps 695 mmHg 79%
    06:00 +20°C° 0 mm 2 mps 695 mmHg 79%
    07:00 +23°C° 0 mm 2 mps 696 mmHg 71%
    08:00 +25°C° 0 mm 2 mps 697 mmHg 62%
    09:00 +28°C° 0 mm 2 mps 697 mmHg 53%
    10:00 +29°C° 0 mm 2 mps 697 mmHg 47%
    11:00 +31°C° 0 mm 2 mps 697 mmHg 41%
    12:00 +34°C° 0 mm 2 mps 697 mmHg 35%
    13:00 +32°C° 0 mm 2 mps 696 mmHg 37%
    14:00 +32°C° 0 mm 2 mps 695 mmHg 40%
    15:00 +31°C° 0 mm 2 mps 694 mmHg 42%
    16:00 +29°C° 0 mm 2 mps 694 mmHg 49%
    17:00 +27°C° 0 mm 1 mps 694 mmHg 55%
    18:00 +25°C° 0 mm 1 mps 694 mmHg 62%
    19:00 +25°C° 0 mm 1 mps 695 mmHg 64%
    20:00 +24°C° 0 mm 1 mps 695 mmHg 66%
    21:00 +24°C° 0 mm 1 mps 696 mmHg 68%
    22:00 +23°C° 0 mm 1 mps 695 mmHg 70%
    23:00 +22°C° 0 mm 1 mps 695 mmHg 72%
    Show more